Regional Weather Roundup
Issued by NWS Kansas City/Pleasant Hill, MO

Home | Current Version | Previous Version | Graphics & Text | Print | Product List | Glossary Off
Versions: 1 2 3 4 5 6 7 8 9 10 11 12 13 14 15 16 17 18 19 20 21 22 23 24 25 26 27 28 29 30 31 32 33 34 35 36 37 38 39 40 41 42 43 44 45 46 47 48 49 50

000
ASUS43 KEAX 281410
RWREAX

WEATHER ROUNDUP FOR EASTERN KANSAS AND NORTHWEST MISSOURI
NATIONAL WEATHER SERVICE KANSAS CITY/PLEASANT HILL MO
800 AM CST SUN DEC 28 2014

KSZ040-057-103>105-MOZ028-029-037-043-281500-
...KANSAS CITY METROPOLITAN AREA...

CITY           SKY/WX    TMP DP  RH WIND       PRES   REMARKS
K.C. INTL      PTCLDY    17  15  92 S7        30.21R WCI   8
K.C. DOWNTOWN  CLEAR     21  17  84 SW3       30.24R
LEES SUMMIT    PTCLDY    19  16  88 SW3       30.23R
OLATHE - IXD   PTCLDY    16  13  88 S5        30.23R WCI   9
OLATHE - OJC   PTCLDY    18  17  96 S3        30.22R
LAWRENCE       CLEAR     12   9  87 CALM      30.24R

$$

MOZ001>008-011>017-020>025-030>033-038>040-044>046-053-054-281500-
...NORTHERN AND CENTRAL MISSOURI...

CITY           SKY/WX    TMP DP  RH WIND       PRES   REMARKS
ST. JOSEPH     CLEAR     15  12  88 S7        30.22R WCI   5
MOSBY          SUNNY     18  18 100 CALM      30.24S
WARRENSBURG    MOCLDY    19  18  93 CALM      30.26R
WHITEMAN AFB   MOCLDY    21  18  86 SW2       30.22S
CLINTON        MOCLDY    23  21  93 CALM      30.27R
SEDALIA        FAIR      23  20  88 SW3       30.25R
WARSAW         NOT AVBL
MARSHALL       MOCLDY    23  23 100 CALM      30.26S
CHILLICOTHE      N/A     17  13  84 SE3       30.24S
MOBERLY        MOCLDY    23  19  86 SW5       30.24R WCI  17
KIRKSVILLE     PTCLDY    18  17  96 SW5       30.22R WCI  11

$$

MOZ041-047>049-056>058-063>065-088>090-097-281500-
...EASTERN AND SOUTHERN MISSOURI...

CITY           SKY/WX    TMP DP  RH WIND       PRES   REMARKS
ST. LOUIS INTL CLOUDY    32  24  72 W3        30.25R
SPIRIT OF STL  CLOUDY    31  24  75 VRB3      30.25R
COLUMBIA       CLOUDY    26  22  84 CALM      30.24R
JEFFERSON CITY CLOUDY    28  22  78 CALM      30.27R
MEXICO         CLOUDY    28  27  93 CALM      30.24R
HANNIBAL       MOCLDY    27  19  74 CALM      30.24R
ROLLA          CLOUDY    27  22  81 MISG      30.21R
LEBANON        CLOUDY    25  21  86 CALM      30.23R
OSAGE BEACH    CLOUDY    25  21  86 CALM      30.24S
SPRINGFIELD    CLOUDY    26  22  84 CALM      30.23R
BRANSON        CLOUDY    27  25  93 CALM      30.23S
NEVADA         CLOUDY    21  19  93 CALM      30.28R
JOPLIN         CLOUDY    22  20  92 CALM      30.26R
WEST PLAINS    CLOUDY    28  23  81 NW5       30.21S WCI  23

$$

IAZ060-094-KSZ022-034>040-054-083-096-NEZ052-066-093-281500-
...KANSAS...SOUTHEAST NEBRASKA AND IOWA...

CITY           SKY/WX    TMP DP  RH WIND       PRES   REMARKS
TOPEKA         CLEAR     18  15  88 CALM      30.24R
MANHATTAN      CLEAR     15  12  88 SW3       30.21R
EMPORIA        CLEAR     15  12  88 S6        30.22R WCI   6
CHANUTE        PTCLDY    20  17  88 NW3       30.25R
WICHITA        PTCLDY    17  12  80 CALM      30.21F
OMAHA          CLEAR     16  12  84 SE5       30.16R WCI   9
LINCOLN        CLEAR     13   9  84 S5        30.16R WCI   5
FALLS CITY     CLEAR     14  10  84 CALM      30.17S
LAMONI         CLEAR     16  13  88 S9        30.16R WCI   4
DES MOINES     PTCLDY    16  11  80 S7        30.15F WCI   6

$$



USA.gov is the U.S. government's official web portal to all federal, state and local government web resources and services.